FW5345 Weather Reports


time (UTC)temp
F
wind
direction
speed
knots
gust
knots
rain 1hr
in
rain 24hr
in
rain mn
in
humidity
%
barometer
mb
20260508203116 65 283 7.0 14.8 0.00 0.00 0.00 27 1019.9
20260508201529 64 278 5.2 15.6 0.00 0.00 0.00 27 1019.9
20260508200029 63 227 5.2 13.0 0.00 0.00 0.00 25 1019.9
20260508193037 64 238 6.1 18.2 0.00 0.00 0.00 27 1019.7
20260508191643 64 230 6.1 21.7 0.00 0.00 0.00 29 1019.6
20260508190031 65 246 4.3 13.0 0.00 0.00 0.00 32 1019.6
20260508184531 62 266 4.3 9.6 0.00 0.00 0.00 41 1019.6
20260508183036 59 343 3.5 9.6 0.00 0.00 0.00 55 1019.5
20260508181538 56 8 3.5 5.2 0.00 0.00 0.00 59 1019.3
20260508180036 54 22 1.7 3.5 0.00 0.00 0.00 61 1019.4
20260508174535 54 6 0.0 2.6 0.00 0.00 0.00 61 1019.4
20260508173035 54 19 1.7 5.2 0.00 0.00 0.00 63 1019.1
20260508171536 53 53 0.9 3.5 0.00 0.00 0.00 64 1018.9
20260508170030 53 26 1.7 6.1 0.00 0.00 0.00 64 1019.0
20260508164535 53 6 2.6 7.0 0.00 0.00 0.00 65 1018.9
20260508163035 53 23 4.3 9.6 0.00 0.00 0.00 64 1018.9
20260508161653 54 348 6.1 13.9 0.00 0.00 0.00 64 1018.8
20260508160036 54 11 8.7 14.8 0.00 0.00 0.00 64 1018.8
20260508154535 55 14 7.8 14.8 0.00 0.00 0.00 64 1018.8
20260508151609 55 5 7.0 13.9 0.00 0.00 0.00 64 1018.5
20260508150031 55 353 7.0 13.9 0.00 0.00 0.00 62 1018.4
20260508144535 55 342 8.7 13.9 0.00 0.00 0.00 60 1018.2
20260508143035 54 342 7.8 12.2 0.00 0.00 0.00 60 1018.0
20260508141644 54 336 7.0 12.2 0.00 0.00 0.00 61 1017.8
20260508140037 54 321 5.2 13.9 0.00 0.00 0.00 60 1017.7
20260508134643 54 312 5.2 10.4 0.00 0.00 0.00 61 1017.7
20260508133035 54 316 6.1 11.3 0.00 0.00 0.00 62 1017.5
20260508131535 54 309 5.2 12.2 0.00 0.00 0.00 63 1017.5
20260508130037 49 330 4.3 7.0 0.00 0.00 0.00 71 1017.1
20260508124537 46 110 0.9 4.3 0.00 0.00 0.00 72 1017.1
20260508123033 45 150 1.7 4.3 0.00 0.00 0.00 70 1017.1
20260508121534 45 130 0.9 3.5 0.00 0.00 0.00 68 1017.0
20260508120036 45 153 2.6 5.2 0.00 0.00 0.00 67 1016.9
20260508111532 44 142 1.7 3.5 0.00 0.00 0.00 61 1016.6
20260508104535 45 129 1.7 3.5 0.00 0.00 0.00 60 1016.6
20260508103036 44 120 2.6 7.8 0.00 0.00 0.00 62 1016.6
20260508100033 44 128 3.5 7.0 0.00 0.00 0.00 62 1016.6
20260508094610 45 133 3.5 6.1 0.00 0.00 0.00 62 1016.6
20260508093031 44 138 4.3 7.0 0.00 0.00 0.00 64 1016.5
20260508090043 44 134 2.6 4.3 0.00 0.00 0.00 65 1016.5
20260508090036 44 142 3.5 6.1 0.00 0.00 0.00 66 1016.5
20260508081530 44 155 2.6 4.3 0.00 0.00 0.00 65 1016.6
20260508080032 45 168 2.6 3.5 0.00 0.00 0.00 63 1016.6
20260508074537 46 159 2.6 4.3 0.00 0.00 0.00 61 1016.7
20260508071533 46 154 3.5 7.8 0.00 0.00 0.00 62 1016.8
20260508070035 45 149 3.5 5.2 0.00 0.00 0.00 61 1016.8
20260508064609 47 155 3.5 6.1 0.00 0.00 0.00 59 1016.9
20260508063035 47 165 2.6 5.2 0.00 0.00 0.00 59 1016.9
20260508061610 47 149 4.3 7.0 0.00 0.00 0.00 57 1017.0
20260508060035 48 162 3.5 6.1 0.00 0.00 0.00 55 1017.1
20260508054537 49 157 1.7 4.3 0.00 0.00 0.00 51 1017.1
20260508053035 51 152 0.9 5.2 0.00 0.00 0.00 49 1017.1
20260508051534 53 140 1.7 5.2 0.00 0.00 0.00 45 1017.1
20260508050034 54 191 1.7 6.1 0.00 0.00 0.00 42 1017.1
20260508044532 55 294 1.7 5.2 0.00 0.00 0.00 40 1017.1
20260508041535 59 325 6.1 11.3 0.00 0.00 0.00 32 1016.7
20260508040036 61 318 7.0 13.9 0.00 0.00 0.00 28 1016.6
20260508034642 61 306 7.8 13.0 0.00 0.00 0.00 30 1016.4
20260508033111 61 316 7.0 13.9 0.00 0.00 0.00 34 1016.1
20260508030030 62 320 5.2 11.3 0.00 0.00 0.00 35 1016.3
20260508024530 63 316 5.2 13.9 0.00 0.00 0.00 34 1016.3
20260508021647 65 318 5.2 7.0 0.00 0.00 0.00 36 1016.0
20260508020034 67 314 6.1 11.3 0.00 0.00 0.00 33 1016.0
20260508011642 69 312 5.2 14.8 0.00 0.00 0.00 30 1016.2
20260508010035 69 310 6.1 10.4 0.00 0.00 0.00 29 1016.2
20260508004529 69 307 6.1 12.2 0.00 0.00 0.00 29 1016.2
20260508003108 70 311 7.8 13.9 0.00 0.00 0.00 29 1016.1
20260508001536 71 299 6.1 15.6 0.00 0.00 0.00 27 1016.1
20260508000038 70 305 7.0 14.8 0.00 0.00 0.00 25 1016.1
20260507234609 71 301 7.0 15.6 0.00 0.00 0.00 25 1016.0
20260507231607 71 310 7.8 17.4 0.00 0.00 0.00 25 1016.2
20260507230035 71 306 7.8 17.4 0.00 0.00 0.00 25 1016.3
20260507224534 71 309 7.0 13.9 0.00 0.00 0.00 24 1016.4
20260507223031 71 305 7.0 13.9 0.00 0.00 0.00 25 1016.5
20260507220038 70 308 6.1 14.8 0.00 0.00 0.00 28 1017.0
20260507214641 70 322 6.1 11.3 0.00 0.00 0.00 29 1017.0
20260507213030 70 331 7.0 15.6 0.00 0.00 0.00 31 1017.1
20260507211537 69 338 7.8 12.2 0.00 0.00 0.00 31 1017.1
20260507210142 69 330 7.0 15.6 0.00 0.00 0.00 32 1017.3